FGRST (GLAST)

Last updated on Tue Sep 16 2025 00:02:40 GMT+0000 (Coordinated Universal Time)

1 33053U 08029A 25258.43370184 .00004545 00000+0 18095-3 0 9998 2 33053 25.5829 309.3434 0008200 331.2714 28.7371 15.21697501953905
UTC large
Height (km)
Speed (km/s)
/
Latitude / Longitude
Inclination (degrees)
Orbital Period (minutes)
Azimuth
Elevation
Range (km)
Doppler Factor

Next 0 passes for location: London (51.5072 / 0.1276)

Sorry there are no passes over London.